Tracking 28126 objects as of 2-Oct-2023
HD Live streaming from Space Station
objects crossing your sky now

ANDESITE

Track ANDESITE now!
10-day predictions


NORAD ID: 45726
Int'l Code: 2020-037D
Perigee: 579.6 km
Apogee: 596.5 km
Inclination: 97.8 °
Period: 96.3 minutes
Semi major axis: 6959 km
RCS: Unknown
Launch date: June 13, 2020
Source: United States (US)
Launch site: Rocket Lab Launch Complex (RLLC)
Your satellite tracking list
Your tracking list is empty




NASA's NSSDC Master Catalog

Two Line Element Set (TLE):
1 45726U 20037D   23275.02754460  .00004986  00000-0  45507-3 0  9994
2 45726  97.7646  90.7672 0012195 248.6875 111.3045 14.95471859177298
Source of the keplerian elements: AFSPC